Regional Weather Roundup
Issued by NWS

Home | Current Version | Previous Version | Graphics & Text | Print | Product List | Glossary On
Versions: 1 2 3 4 5 6 7 8 9 10 11 12 13 14 15 16 17 18 19 20 21 22 23 24 25 26 27 28 29 30 31 32 33 34 35 36 37 38 39 40 41 42 43 44 45 46 47 48 49 50
000
ASUS43 KDMX 311707
RWRIA

WEATHER ROUNDUP FOR IOWA
NATIONAL WEATHER SERVICE DES MOINES IA
1100 AM CST SAT JAN 31 2015

NOTE: "FAIR" INDICATES FEW OR NO CLOUDS BELOW 12,000 FEET WITH NO
SIGNIFICANT WEATHER AND/OR OBSTRUCTIONS TO VISIBILITY.

* - THESE STATIONS ARE NOT NWS STATIONS...THUS NOT UNDER NWS
QUALITY CONTROL.  THEY ALSO DO NOT REPORT WEATHER SUCH
AS PRECIPITATION OR FOG.

IAZ001>003-012>014-020>022-031>034-043>046-311800-
   NORTHWEST IOWA

CITY           SKY/WX    TMP DP  RH WIND       PRES   REMARKS
CARROLL *      CLOUDY    37  36  93 SW17      30.13F WCI  28
CHEROKEE *     CLOUDY    32  32 100 NE7       30.12F WCI  26
DENISON *      CLOUDY    36  36 100 S9G16     30.11F FOG     WCI  29
LE MARS *      CLOUDY    36  34  93 NE7       30.11F WCI  30
ORANGE CITY *  CLOUDY    28  27  93 E12       30.11F FOG     WCI  18
SHELDON *      CLOUDY    27  27 100 NE13      30.11F FOG     WCI  16
SIOUX CITY     CLOUDY    37  34  89 E6        30.11F WCI  32
SPENCER        CLOUDY    28  25  88 NE12      30.15S FOG     WCI  18
STORM LAKE *   CLOUDY    34  34 100 CALM      30.12F FOG
$$

IAZ055>058-069>071-079>083-090>094-311800-
   SOUTHWEST IOWA

CITY           SKY/WX    TMP DP  RH WIND       PRES   REMARKS
ATLANTIC *     MIX PCPN  34  34 100 S9        30.16S WCI  26
AUDUBON *      DRIZZLE   36  34  93 S7        30.16S WCI  30
CLARINDA *     MIX PCPN  37  37 100 S9        30.21S WCI  31
COUNCIL BLFS * LGT SNOW  34  34 100 S9        30.14S WCI  26
CRESTON *      MIX PCPN  36  36 100 SW10      30.19R WCI  28
HARLAN  *      MIX PCPN  36  36 100 S13       30.18S WCI  27
LAMONI         LGT RAIN  35  34  96 S8        30.20F FOG     WCI  29
RED OAK *      CLOUDY    36  36 100 S12G17    30.17F WCI  27
SHENANDOAH *   MIX PCPN  37  36  93 S15       30.18S WCI  28
$$

IAZ047>049-059>061-072>074-084-311800-
   CENTRAL IOWA

CITY           SKY/WX    TMP DP  RH WIND       PRES   REMARKS
AMES           CLOUDY    37  33  85 SW8       30.17S FOG     WCI  31
ANKENY *       PTSUNNY   39  36  87 SW8G14    30.19S WCI  34
CHARITON *     MOSUNNY   36  34  93 SW9       30.20S WCI  29
DES MOINES     DRIZZLE   39  34  82 SW10      30.19S WCI  32
GRINNELL*      DRIZZLE   36  32  87 SW9       30.19S WCI  29
KNOXVILLE *    PTSUNNY   37  32  81 SW13      30.19S WCI  29
MARSHALLTOWN   CLOUDY    37  32  82 SW9       30.17S WCI  30
PELLA *        CLOUDY    39  32  75 SW7       30.22S WCI  34
PERRY *          N/A     39  36  87 SW9       30.16S WCI  33
$$

IAZ004>006-015-016-023>025-035-036-311800-
   NORTH CENTRAL IOWA

CITY           SKY/WX    TMP DP  RH WIND       PRES   REMARKS
ALGONA *       CLOUDY    28  28 100 N9        30.16S FOG     WCI  20
CLARION *      CLOUDY    34  34 100 CALM      30.15S
ESTHERVILLE    CLOUDY    26  25  96 NE10      30.15S FOG     WCI  16
FORT DODGE *   CLOUDY    34  28  80 E3        30.15F
MASON CITY     CLOUDY    32  27  81 N6        30.16F WCI  26
FOREST CITY *  SUNNY     32  27  80 E3        30.15F
IOWA FALLS *   CLOUDY    34  30  86 CALM      30.17S
$$

IAZ007>011-017>019-026>030-037>042-050>054-066-311800-
   NORTHEAST IOWA

CITY           SKY/WX    TMP DP  RH WIND       PRES   REMARKS
CEDAR RAPIDS   CLOUDY    38  32  79 SW10      30.19S WCI  31
CHARLES CITY * PTSUNNY   30  27  86 NE3       30.17F
CLINTON *      CLOUDY    36  27  69 W10       30.24F WCI  28
DECORAH *      CLOUDY    27  21  80 CALM      30.17S
DUBUQUE        CLOUDY    31  25  78 SW9       30.18S WCI  23
MONTICELLO *   PTSUNNY   36  30  80 W6        30.19F WCI  31
OELWEIN *      CLOUDY    32  27  80 NW3       30.18S
WATERLOO       CLOUDY    36  29  75 W5        30.17F WCI  32
$$

IAZ064-065-067-068-078-311800-
   EAST CENTRAL IOWA

CITY           SKY/WX    TMP DP  RH WIND       PRES   REMARKS
DAVENPORT      CLOUDY    35  27  72 W14       30.22S WCI  26
IOWA CITY      CLOUDY    37  29  72 SW7       30.23S WCI  32
MT. PLEASANT * DRIZZLE   34  30  86 SW10      30.25S WCI  26
MUSCATINE *    CLOUDY    36  28  75 S6        30.24S WCI  31
QUAD CITIES    CLOUDY    37  27  67 W7        30.22F WCI  32
$$

IAZ062-063-075>077-085>089-095>099-311800-
   SOUTHEAST IOWA

CITY           SKY/WX    TMP DP  RH WIND       PRES   REMARKS
BURLINGTON     CLOUDY    35  26  69 S8        30.25R WCI  29
FAIRFIELD *    CLOUDY    36  28  75 SW10      30.23S WCI  28
FORT MADISON * CLOUDY    34  27  75 SW7       30.26S WCI  28
KEOKUK *       CLOUDY    36  25  64 SW9       30.25F WCI  29
OSKALOOSA *    LGT RAIN  36  32  87 SW9       30.22S WCI  29
CENTERVILLE *  LGT RAIN  36  36 100 SW8       30.24S WCI  29
OTTUMWA        LGT RAIN  38  32  79 SW9       30.21F WCI  31
WASHINGTON *   CLOUDY    37  32  81 SW8       30.22F WCI  31
$$

ABBREVIATIONS USED IN REMARKS
   TC - TEMPERATURES IN CELSIUS
  WCI - WIND CHILL INDEX
   HX - HEAT INDEX
  VSB - VISIBILITY
$$




USA.gov is the U.S. government's official web portal to all federal, state and local government web resources and services.